This demonstration page uses our WeatherBlox Daily Observations layout. Learn more.

Left ArrowRight Arrow

41.55636, -103.73856

Hourly Observations for September 22, 2015

Temp ( °F °C ) Dew Point ( °F °C ) Humidity (%) Winds ( mph kmh ) Pressure ( in mb ) Visibility ( mi km ) Precip ( " mm )
12:53 am 00:53 Clear 54 12.2 44 6.7 69 69 E 7 11 29.86 1011 10 16.0934 0 0
1:53 am 01:53 Clear 54 12.2 43 6.1 67 67 E 3 6 29.88 1012 10 16.0934 0 0
2:53 am 02:53 Clear 54 12.2 44 6.7 69 69 NNE 10 17 29.88 1012 10 16.0934 0 0
3:53 am 03:53 Clear 52 11.1 43 6.1 72 72 N 7 11 29.89 1012 10 16.0934 0 0
4:53 am 04:53 Clear 50 10 43 6.1 77 77 NNW 3 6 29.93 1014 10 16.0934 0 0
5:53 am 05:53 Clear 51 10.6 43 6.1 74 74 NNE 6 9 29.94 1014 10 16.0934 0 0
6:53 am 06:53 Sunny 55 12.8 45 7.2 69 69 NE 7 11 29.97 1015 10 16.0934 0 0
7:53 am 07:53 Sunny 58 14.4 47 8.3 67 67 NE 10 17 29.99 1016 10 16.0934 0 0
8:53 am 08:53 Sunny 60 15.6 47 8.3 62 62 NE 8 13 30.01 1016 10 16.0934 0 0
9:53 am 09:53 Sunny 63 17.2 48 8.9 58 58 ENE 12 19 30.04 1017 10 16.0934 0 0
10:53 am 10:53 Sunny 66 18.9 49 9.4 54 54 ENE 8 13 30.02 1017 10 16.0934 0 0
11:53 am 11:53 Sunny 68 20 51 10.6 55 55 ENE 10 17 30 1016 10 16.0934 0 0
12:53 pm 12:53 Sunny 70 21.1 52 11.1 53 53 ENE 12 19 29.99 1016 10 16.0934 0 0
1:53 pm 13:53 Sunny 67 19.4 52 11.1 59 59 E 15 24 29.99 1016 10 16.0934 0 0
2:53 pm 14:53 Sunny 66 18.9 52 11.1 61 61 ENE 13 20 29.98 1015 10 16.0934 0 0
3:53 pm 15:53 Sunny 66 18.9 53 11.7 63 63 NE 12 19 29.98 1015 10 16.0934 0 0
4:53 pm 16:53 Sunny 64 17.8 53 11.7 68 68 NE 12 19 29.98 1015 10 16.0934 0 0
5:53 pm 17:53 Sunny 62 16.7 54 12.2 75 75 ENE 9 15 29.98 1015 10 16.0934 0 0
6:53 pm 18:53 Partly Cloudy 60 15.6 53 11.7 78 78 E 10 17 30.01 1016 10 16.0934 0 0
7:10 pm 19:10 Mostly Cloudy 57 14 54 12 88 88 ENE 8 13 29.97 1015 10 16.0934 0 0
7:25 pm 19:25 Partly Cloudy 58 14.4 54 12.2 87 87 ENE 8 13 29.97 1015 10 16.0934 0 0
7:45 pm 19:45 Partly Cloudy 57 13.9 54 12.2 90 90 ENE 10 17 29.97 1015 10 16.0934 0 0
7:53 pm 19:53 Partly Cloudy 57 13.9 54 12.2 90 90 ENE 9 15 29.98 1015 9 14.48406 0 0
8:05 pm 20:05 Mostly Cloudy 58 14.4 54 12.2 87 87 ENE 8 13 29.97 1015 9 14.48406 0 0
8:26 pm 20:26 Cloudy 57 14 55 13 94 94 ENE 12 19 30 1016 10 16.0934 0 0
8:53 pm 20:53 Cloudy 58 14.4 55 12.8 90 90 ENE 8 13 30 1016 10 16.0934 0 0
9:53 pm 21:53 Cloudy 58 14.4 55 12.8 90 90 ENE 8 13 30 1016 10 16.0934 0 0
10:16 pm 22:16 Cloudy 58 14.4 56 13.3 93 93 ENE 9 15 30 1016 7 11.26538 0 0
10:53 pm 22:53 Cloudy 59 15 56 13.3 90 90 ENE 9 15 29.98 1015 9 14.48406 0 0
11:21 pm 23:21 Cloudy 59 15 57 13.9 93 93 ENE 7 11 29.94 1014 10 16.0934 0 0
11:53 pm 23:53 Cloudy 60 15.6 58 14.4 93 93 ENE 5 7 29.97 1015 10 16.0934 0 0

Powered by AerisWeather